This demonstration page uses our WeatherBlox Daily Observations layout. Learn more.

Left ArrowRight Arrow

Hourly Observations for June 23, 2017

Temp ( °F °C ) Dew Point ( °F °C ) Humidity (%) Winds ( mph kmh ) Pressure ( in mb ) Visibility ( mi km ) Precip ( " mm )
12:53 am 00:53 Clear 38 3.3 34 1.1 86 86 S 6 9 30.27 1025 10 16 0.00 0.00
1:53 am 01:53 Partly Cloudy 42 5.6 37 2.8 82 82 SW 13 20 30.28 1025 10 16 0.00 0.00
2:53 am 02:53 Clear 41 5 37 2.8 86 86 SW 9 15 30.29 1026 10 16 0.00 0.00
3:53 am 03:53 Mostly Cloudy 40 4.4 36 2.2 86 86 WSW 6 9 30.29 1026 10 16 0.00 0.00
4:53 am 04:53 Clear 40 4.4 37 2.8 89 89 WSW 8 13 30.30 1026 10 16 0.00 0.00
5:53 am 05:53 Sunny 41 5 37 2.8 86 86 SW 6 9 30.29 1026 10 16 0.00 0.00
6:53 am 06:53 Mostly Sunny 45 7.2 39 3.9 80 80 SW 7 11 30.29 1026 10 16 0.00 0.00
7:53 am 07:53 Mostly Sunny 51 10.6 39 3.9 64 64 W 7 11 30.29 1026 10 16 0.00 0.00
8:53 am 08:53 Mostly Cloudy 57 13.9 40 4.4 53 53 W 7 11 30.29 1026 10 16 0.00 0.00
9:53 am 09:53 Partly Cloudy 62 16.7 38 3.3 41 41 WNW 9 15 30.28 1026 10 16 0.00 0.00
10:53 am 10:53 Mostly Cloudy 63 17.2 35 1.7 35 35 W 10 17 30.28 1025 10 16 0.00 0.00
11:53 am 11:53 Mostly Cloudy 64 17.8 32 0 30 30 WNW 14 22 30.27 1025 10 16 0.00 0.00
12:53 pm 12:53 Cloudy 68 20 34 1.1 28 28 NW 17 28 30.26 1025 10 16 0.00 0.00
1:53 pm 13:53 Cloudy 67 19.4 33 0.6 28 28 NW 14 22 30.24 1024 10 16 0.00 0.00
2:53 pm 14:53 Cloudy 68 20 34 1.1 28 28 WNW 17 28 30.24 1024 10 16 0.00 0.00
3:53 pm 15:53 Partly Cloudy 70 21.1 35 1.7 28 28 W 12 19 30.23 1024 10 16 0.00 0.00
4:53 pm 16:53 Mostly Cloudy 70 21.1 34 1.1 27 27 WNW 8 13 30.22 1023 10 16 0.00 0.00
5:53 pm 17:53 Partly Cloudy 72 22.2 34 1.1 25 25 NW 18 30 30.21 1023 10 16 0.00 0.00
6:53 pm 18:53 Mostly Cloudy 71 21.7 35 1.7 27 27 NNW 20 31 30.21 1023 10 16 0.00 0.00
7:53 pm 19:53 Sunny 69 20.6 31 -0.6 24 24 NNW 13 20 30.21 1023 10 16 0.00 0.00
8:53 pm 20:53 Sunny 65 18.3 33 0.6 31 31 NW 8 13 30.21 1023 10 16 0.00 0.00
9:53 pm 21:53 Clear 58 14.4 34 1.1 41 41 WNW 5 7 30.23 1024 10 16 0.00 0.00
10:53 pm 22:53 Clear 50 10 35 1.7 57 57 WSW 6 9 30.25 1024 10 16 0.00 0.00
11:53 pm 23:53 Clear 46 7.8 36 2.2 68 68 SW 6 9 30.26 1025 10 16 0.00 0.00

Powered by AerisWeather